ORBCOMM FM 29

Satellite information

Favourite Embed

Satellite Type and Status

PAYLOADIN ORBIT

Key statistics

Satellite ORBCOMM FM 29 at a glance.

Uptime

6340

Days in orbit

Revolutions

≈ 14.8

Per day

Orbit

LEO

Low Earth Orbit

Inclination

48.4

Latest

Satellite identification and parameters

Extended collection of information and parameters for ORBCOMM FM 29.

Object identification

Identified? True

Debris? False

Object name: ORBCOMM FM 29

International designator: 2008-031C

Object number (NORAD): 33062

Object ID (CCSDS): 33062

Country: ORBITAL TELECOMMUNICATIONS SATELLITE (GLOBALSTAR) (ORB)

Current information (Y/N): Y

RCS size: MEDIUM

Orbital parameters

Period: 97.189 minutes

Inclination: 48.4387 deg

SMA: 7002.274 km

Apoapsis: 628.624 km

Periapsis: 619.655 km

RAAN: 58.9911 deg

Eccentricy: 0.00064041

Argument of periapsis: 238.3847 deg

Mean anomaly: 277.8416 deg

Mean motion: 14.81644737 rev/day

Mean motion (dot): 0.00003167 rev/day2

B* drag term: 0.00042509027 1/REarth

Two-line elements (TLE)

Creation date: Oct. 28, 2025, 2:18 a.m.

Reference frame: TEME

Reference center: EARTH

Epoch: Oct. 27, 2025, 6:41 p.m. UTC

TLE line 0: 0 ORBCOMM FM 29

TLE line 1: 1 33062U 08031C 25300.77915800 .00003167 00000-0 42509-3 0 9993

TLE line 2: 2 33062 48.4387 58.9911 0006404 238.3847 277.8416 14.81644737933805

Live tracking on map

Real-time ground track for satellite ORBCOMM FM 29.

In-orbit conjunctions

A list of the most updated potential collisions computed for object ORBCOMM FM 29.

Target Orbit TCA Probability of collision Miss distance Type
THOR BURNER 2 R/B SSO 2024-10-12 00:32:43 0.0007839278 42.0 (m) ROCKET BODY
SL-16 DEB LEO 2024-07-05 09:04:51 0.0002180661 819.0 (m) DEBRIS

Associated space launch

LEO communications satellites

ORBCOMM FM 29 was lifted into orbit during the mission ‘Kosmos-3M | Orbcomm FM 37 to 41 & CDS 3’, on board a Kosmos-3M space rocket.

The launch took place on June 19, 2008, 6:36 a.m. from 107.

For more information about the launch, click the button.

Launch to space Kosmos-3M | Orbcomm FM 37 to 41 & CDS 3
Kosmos-3M | Orbcomm FM 37 to 41 & CDS 3

Agency: N/A

Status: Launch Successful

Launch date: June 19, 2008, 6:36 a.m. UTC

Rocket: Kosmos-3M

Launch pad: 107

Location: Kapustin Yar, Russian Federation

...

Latest news about this satellite

There are no fresh news available about this satellite. Check back as we update our databases every day.


Newsletter sign-up

Weekly statistics, charts and insights to help you stay on top of the space industry.